Wind_Speed
27 22 19 21 23 36 41 36 32 31 29 29 28 24 23 24 23 22 24 24 21 20 28 22 23 26 30 26 30 32 23 32 36 35 29 27 29 33 35 36 35 37 36 36 32 28 25 29 31 32 34 38 40 45
25 20 19 20 24 28 38 38 40 31 30 30 28 26 24 24 25 24 23 26 23 22 25 20 21 26 28 30 33 34 35 35 44 36 34 31 39 39 39 44 37 34 36 35 41 39 38 36 37 39 35 36 39 43
24 20 20 20 21 26 31 37 37 36 31 30 29 25 24 23 24 24 24 26 24 23 22 18 20 27 22 25 27 28 31 34 27 28 34 39 41 40 42 38 46 47 46 39 41 48 49 45 37 37 46 40 45 45
23 19 20 21 20 24 29 34 36 34 32 31 28 25 24 24 23 22 22 26 25 23 22 22 19 20 21 24 24 24 26 26 33 35 38 42 47 39 31 28 39 34 43 44 48 53 57 52 39 22 47 35 34 39
22 19 18 19 19 25 28 34 37 33 32 30 28 26 24 23 22 22 23 25 26 25 22 21 15 20 22 23 20 22 20 21 26 29 32 28 29 4 31 33 43 30 24 29 51 57 55 44 53 16 48 43 32 20
21 18 17 19 18 23 26 32 35 36 33 30 29 28 26 23 22 22 20 23 25 25 24 21 12 14 19 21 16 19 20 21 21 24 29 27 37 35 35 35 24 33 32 38 29 32 61 52 43 17 19 27 34 24
20 18 17 18 19 23 23 29 35 35 33 31 30 29 27 25 24 22 20 23 25 25 25 22 15 16 15 21 17 19 18 21 22 22 25 29 34 36 38 41 42 34 35 39 42 39 23 13 21 17 22 30 29 28
18 18 17 20 19 23 24 24 29 32 32 32 33 31 29 28 26 22 23 23 26 26 26 24 20 17 15 16 19 18 21 19 20 24 27 28 31 34 37 35 36 39 39 35 32 26 28 32 33 34 32 29 34 35
19 18 18 21 23 22 24 25 29 28 28 31 33 31 31 28 26 26 26 25 25 27 26 25 26 23 18 15 14 16 19 18 14 18 20 24 27 27 23 30 36 30 36 38 36 35 36 37 43 41 41 41 38 35
21 20 19 20 23 24 25 26 29 30 29 29 29 31 31 27 31 30 27 27 26 25 25 25 29 24 23 22 17 14 15 18 18 16 20 21 21 15 18 24 23 21 26 25 28 25 23 33 32 36 34 33 38 31
23 22 22 21 23 24 23 25 25 29 29 31 31 29 27 31 29 28 27 26 26 23 23 27 26 27 29 25 23 18 13 15 14 14 19 20 21 19 22 17 18 15 13 19 5 18 29 23 21 6 16 31 33 27
21 23 22 21 24 24 24 24 24 24 28 30 31 29 31 29 26 26 25 24 22 22 23 25 25 26 29 28 26 24 24 24 15 21 14 7 10 13 16 11 14 9 12 11 14 12 20 28 16 9 19 17 12 22
22 24 22 18 27 26 26 28 27 24 26 32 37 35 31 28 26 22 20 20 21 23 22 23 25 26 29 26 24 27 28 29 21 19 18 17 13 13 14 12 12 14 14 13 15 18 18 25 26 17 24 15 21 27
24 28 23 20 25 21 19 21 28 30 28 31 35 35 31 26 22 22 23 21 21 21 23 21 23 24 27 27 26 30 29 29 29 26 26 23 23 16 14 15 15 14 14 16 19 22 22 22 24 28 27 26 25 28
24 28 23 18 26 30 26 24 21 20 22 24 26 23 22 25 24 23 21 21 21 20 23 22 22 21 22 24 26 26 26 25 24 24 23 27 28 21 18 17 17 19 15 15 16 18 20 25 26 27 27 28 26 26
26 29 29 26 22 30 30 27 25 25 25 24 23 22 25 24 24 24 24 21 20 22 23 24 26 25 24 22 19 20 23 27 27 21 23 24 27 22 20 20 18 19 17 18 14 15 16 19 22 26 27 25 24 22
24 30 31 29 25 25 28 27 30 29 30 25 22 24 27 29 28 28 25 22 23 22 24 25 23 26 25 24 22 24 29 32 26 24 21 24 23 23 23 22 22 21 21 19 16 17 17 18 20 23 24 23 21 18
23 29 30 32 31 27 26 33 32 33 29 26 26 30 33 34 32 32 27 27 27 28 25 22 19 22 24 23 27 32 32 31 31 29 26 29 28 26 34 37 27 23 22 18 19 19 19 18 20 21 21 18 17 18
21 23 27 30 32 32 33 32 30 30 31 33 32 34 34 33 33 34 30 28 31 31 29 26 27 25 24 28 26 29 32 30 28 26 26 26 29 21 25 29 24 20 16 17 19 18 18 19 19 19 19 18 18 18
17 18 20 21 22 23 24 24 24 23 25 28 31 32 32 33 33 35 35 32 33 33 32 28 25 23 28 32 34 35 33 26 24 28 24 27 27 30 22 15 16 15 17 18 18 15 15 17 17 16 17 18 16 17
17 18 18 17 19 19 20 20 22 22 23 25 29 32 34 36 37 35 31 31 35 35 29 28 27 28 32 36 39 39 34 31 26 21 21 9 6 27 18 14 13 16 18 18 16 14 15 14 14 15 18 18 16 17
18 22 19 19 19 20 21 22 23 23 23 25 26 28 28 29 30 31 32 37 34 32 34 33 32 34 35 39 42 42 29 27 28 26 20 20 8 1 6 11 14 14 15 15 14 14 13 14 14 16 17 16 16 17
14 14 16 18 20 21 20 21 22 23 25 26 28 31 30 30 29 31 32 30 31 34 34 34 34 36 37 38 39 35 22 18 23 27 25 20 16 13 10 18 18 15 10 12 14 13 12 14 16 16 15 16 15 16
17 18 19 21 21 23 23 22 24 26 27 28 29 31 31 31 33 34 31 29 30 33 34 33 35 36 36 36 36 32 26 25 25 27 26 23 23 22 18 18 17 13 17 11 17 16 13 16 19 16 17 16 14 14
23 25 25 26 27 28 29 29 31 32 32 33 34 35 34 35 36 37 33 32 33 30 31 33 34 34 36 36 33 32 29 24 24 26 25 24 23 22 22 21 11 17 17 20 23 15 18 20 20 17 18 15 14 14
22 22 22 23 24 25 26 28 29 32 35 38 40 42 43 43 43 42 37 35 34 34 33 32 32 32 33 32 31 30 30 27 24 25 25 25 24 23 22 24 25 23 23 22 22 18 20 15 17 17 17 17 15 16
16 17 17 17 18 19 21 23 25 27 29 32 34 39 43 48 50 50 46 39 39 37 37 37 34 30 30 28 27 26 27 27 25 24 25 25 23 23 23 23 23 24 27 26 24 24 24 24 22 21 22 24 20 19
11 12 12 14 16 17 19 21 23 25 29 32 35 38 40 40 44 51 56 51 47 44 43 39 32 31 33 29 27 26 27 27 24 22 23 24 23 24 25 24 23 26 26 25 26 33 22 21 19 19 22 23 21 19
6 7 7 9 11 14 20 24 26 29 31 39 38 37 42 48 50 54 56 55 53 48 46 39 34 34 30 28 28 27 26 26 25 23 23 23 24 29 30 28 33 31 20 16 19 23 24 18 17 15 18 23 24 23
3 3 5 8 11 13 18 22 25 22 17 23 23 22 21 24 35 43 45 48 48 46 48 43 41 37 33 32 29 28 27 27 26 23 21 21 25 31 34 31 27 18 17 15 19 20 20 21 16 18 18 20 26 27
1 4 7 8 10 13 16 18 21 22 21 15 21 16 9 15 26 38 44 40 37 53 51 50 43 38 32 30 29 28 27 26 27 27 24 22 23 21 19 18 20 23 21 21 23 25 26 26 19 18 18 20 22 20
7 9 11 11 12 14 18 20 23 21 19 16 8 8 12 17 36 34 53 32 26 35 46 47 40 37 31 29 29 27 24 26 26 25 25 24 23 22 20 18 16 18 23 24 23 22 27 23 23 20 16 18 23 23
10 10 10 10 11 12 13 16 13 10 12 15 2 7 14 16 16 22 42 43 29 33 39 39 37 34 31 30 27 25 24 24 25 27 29 26 25 26 22 19 15 15 18 21 22 21 21 21 23 23 26 24 29 24
Wind_Direction
304 287 270 243 239 231 226 223 227 231 228 226 226 231 232 238 241 239 233 234 234 225 237 236 231 242 250 240 235 239 238 223 220 217 219 216 208 198 213 216 221 215 225 214 217 224 238 231 233 233 237 244 248 255
302 280 268 249 244 231 228 229 220 226 223 223 225 231 235 238 240 242 239 234 229 225 236 237 242 234 235 243 244 242 243 236 225 219 211 200 196 207 220 224 231 222 223 222 222 220 221 218 243 250 250 248 253 259
296 275 268 256 241 227 225 225 228 219 220 220 224 229 234 238 240 243 235 230 228 226 233 238 237 238 235 241 246 247 235 223 217 234 227 217 208 219 227 230 226 235 230 219 224 225 226 226 213 244 245 251 255 257
291 272 267 254 244 231 218 220 215 217 218 219 224 229 234 237 240 239 235 228 228 227 233 241 254 253 248 243 244 246 238 242 231 231 221 224 217 226 246 237 236 240 240 233 232 234 232 226 228 241 247 244 263 268
285 266 263 249 241 225 217 217 215 217 216 219 223 229 231 233 237 239 239 231 228 228 232 243 241 238 235 240 242 242 241 229 238 242 242 238 275 61 238 246 240 254 270 245 248 251 243 228 213 223 248 255 262 270
279 263 256 244 237 221 217 218 219 217 218 223 225 225 226 231 237 241 242 229 227 225 227 237 239 248 242 247 240 238 237 234 224 221 214 228 239 234 248 255 258 267 272 278 222 251 233 223 214 214 244 261 268 297
265 256 252 245 233 221 222 220 219 218 219 222 221 224 229 233 235 237 237 231 227 227 226 230 230 238 244 244 235 232 237 239 238 232 231 232 240 242 246 253 262 270 270 262 281 293 279 284 146 195 222 247 258 271
252 250 252 239 232 221 220 215 215 219 222 225 222 224 230 233 234 235 236 235 228 227 226 226 231 233 236 247 244 233 230 241 239 235 233 238 244 251 251 251 261 260 264 272 276 267 255 254 241 250 256 249 255 263
251 254 253 245 231 224 220 214 214 220 223 222 219 223 228 231 232 232 234 236 233 228 226 225 230 230 222 235 240 246 245 241 237 227 227 239 246 254 262 253 258 265 267 261 256 255 265 253 249 248 249 254 257 260
251 248 250 245 226 220 220 221 222 224 225 224 225 228 228 232 233 231 234 236 236 232 224 226 231 230 236 234 228 235 242 253 245 233 231 242 252 251 238 249 266 287 285 256 252 247 255 251 248 250 245 240 257 258
249 248 245 244 235 227 224 220 222 221 222 219 217 222 225 229 226 226 231 234 234 232 223 226 230 230 234 234 239 244 248 244 243 232 242 241 249 262 251 243 244 250 258 254 241 233 240 220 207 239 236 235 249 263
246 240 239 240 231 225 222 219 223 221 217 212 215 220 223 225 224 226 230 230 229 228 223 226 227 230 237 237 237 241 249 252 253 253 242 259 226 253 261 254 271 247 235 230 231 242 252 254 228 265 261 265 260 258
246 235 235 240 228 220 221 219 220 225 224 219 213 214 216 219 220 226 226 224 225 225 222 222 224 227 234 238 238 238 242 252 253 243 266 276 261 266 259 271 255 248 245 252 256 257 255 242 233 257 269 271 258 258
240 228 230 238 207 207 210 215 221 222 222 220 216 215 215 214 217 217 219 220 221 220 226 223 225 226 230 232 228 237 244 248 249 250 258 263 268 267 261 253 253 253 253 255 249 249 252 251 246 254 265 262 258 264
230 219 220 229 221 203 202 201 204 206 207 206 208 202 212 215 213 217 219 222 223 226 229 223 226 226 229 232 233 241 246 250 254 251 250 253 258 257 259 254 248 255 252 251 251 259 257 252 248 244 241 244 251 259
225 218 224 230 232 212 209 211 213 215 215 216 211 209 215 217 216 217 220 222 225 226 228 224 224 229 229 233 235 235 244 250 249 245 249 245 246 247 245 237 240 250 250 251 250 250 251 254 256 250 243 243 249 256
228 220 222 224 226 226 209 230 224 225 225 219 215 218 218 220 222 228 226 225 224 225 225 229 228 230 236 236 231 232 234 243 244 245 246 249 225 207 232 244 239 239 243 246 252 254 257 255 248 250 249 247 249 253
232 221 220 223 225 230 229 220 228 229 230 224 219 223 222 222 224 228 224 224 229 230 231 230 231 236 235 238 233 240 240 244 249 248 247 247 254 262 260 238 229 230 236 243 243 245 248 248 248 252 254 254 259 265
216 214 215 218 223 229 229 230 236 239 234 229 223 222 224 226 227 233 232 226 231 234 233 229 232 234 237 236 237 240 246 252 260 265 262 259 252 266 209 194 204 219 228 234 242 243 243 245 249 256 258 258 257 258
207 207 203 204 208 210 212 216 222 225 225 224 226 230 228 228 231 234 233 231 236 239 239 240 241 237 239 244 240 241 246 247 251 263 270 289 264 243 228 199 204 219 232 237 243 245 247 245 246 249 254 256 257 259
215 213 213 217 221 222 225 225 227 225 227 230 233 235 235 233 235 236 232 228 228 231 232 232 229 228 233 241 245 242 241 245 248 251 271 241 353 196 192 196 218 227 230 234 240 243 245 252 248 249 250 250 251 253
238 225 220 224 229 231 233 233 233 231 228 229 233 235 236 235 235 236 233 231 232 232 232 230 228 231 234 239 244 247 242 248 253 260 258 269 317 70 224 227 230 231 231 233 237 236 242 242 240 243 246 248 247 256
241 242 241 239 240 241 240 240 239 240 240 238 238 239 237 235 235 235 235 235 232 232 232 230 230 232 235 242 251 257 255 241 238 243 250 252 257 250 241 241 200 235 244 237 237 239 232 236 234 237 244 246 249 257
249 249 249 249 249 251 248 248 249 245 243 243 241 241 241 239 238 238 236 234 231 231 231 230 230 231 234 237 243 249 244 229 227 237 238 236 235 239 232 237 246 240 230 210 231 230 227 232 239 238 243 249 252 258
261 260 259 260 259 260 259 257 255 256 254 251 249 246 245 242 239 239 234 232 231 231 228 227 228 229 230 235 238 243 245 244 229 230 235 235 235 233 236 239 235 228 231 233 215 202 228 236 242 239 247 251 252 255
261 261 261 261 261 262 262 262 260 258 257 256 253 251 247 245 242 238 233 229 229 229 230 228 226 225 227 230 234 237 244 244 241 235 231 231 229 229 231 234 232 233 237 232 238 243 234 251 250 248 251 255 245 251
262 260 261 261 260 263 266 266 267 266 265 261 258 255 250 246 241 239 235 230 228 224 225 226 225 224 228 227 227 228 232 239 241 239 234 230 229 230 235 235 233 233 236 240 243 249 250 241 251 272 255 253 251 247
255 251 256 261 265 268 269 271 275 279 274 268 261 257 255 253 246 240 233 226 224 221 220 221 219 221 223 223 223 223 227 233 237 238 236 231 223 225 230 234 242 241 232 241 257 239 248 257 248 257 247 248 247 255
254 260 270 281 289 292 292 290 289 283 280 283 284 275 263 254 248 239 231 222 218 219 220 216 215 220 219 217 219 219 220 224 228 233 236 232 223 226 230 234 243 228 235 240 250 248 227 235 233 234 244 247 241 244
33 340 317 303 308 302 292 287 276 285 292 273 277 282 273 245 228 223 218 212 206 212 217 210 210 211 211 212 211 213 215 218 219 221 223 222 220 228 233 235 251 255 246 240 244 249 248 235 238 231 243 258 250 245
271 309 299 293 305 323 328 329 332 309 295 311 282 279 266 215 205 176 171 164 188 210 221 215 210 207 204 204 208 212 215 217 218 218 215 212 214 221 238 246 239 235 230 229 236 236 235 236 239 243 257 261 242 229
290 307 311 310 307 311 324 330 334 337 316 293 290 254 235 205 171 173 181 183 198 189 192 189 192 195 197 197 202 206 210 216 217 218 217 210 210 210 214 226 235 240 234 226 229 239 232 236 239 239 245 240 246 223
304 305 309 315 315 322 320 328 335 341 356 356 54 154 172 189 195 184 192 191 175 169 174 184 191 194 195 197 201 208 213 215 216 216 216 210 210 216 222 224 240 248 236 227 235 236 228 235 233 230 237 236 213 226
Height
5693 5691 5690 5691 5693 5698 5702 5710 5715 5720 5725 5728 5733 5736 5739 5742 5744 5746 5749 5752 5755 5759 5759 5763 5767 5770 5771 5774 5776 5780 5785 5785 5789 5794 5799 5803 5806 5811 5813 5816 5821 5822 5827 5830 5833 5834 5840 5842 5844 5848 5852 5850 5849 5845
5686 5685 5685 5685 5686 5689 5694 5701 5707 5713 5718 5722 5726 5730 5734 5737 5739 5741 5744 5746 5750 5753 5756 5759 5762 5763 5765 5766 5766 5769 5776 5780 5784 5786 5792 5794 5794 5796 5802 5805 5809 5813 5818 5823 5825 5827 5825 5823 5835 5839 5842 5846 5845 5843
5679 5678 5679 5679 5679 5682 5687 5693 5698 5705 5711 5716 5720 5724 5728 5731 5733 5735 5738 5741 5745 5748 5751 5754 5755 5754 5758 5760 5761 5764 5768 5774 5777 5781 5787 5787 5789 5794 5795 5797 5802 5804 5809 5811 5816 5818 5819 5817 5815 5829 5833 5837 5835 5838
5672 5671 5672 5672 5673 5676 5679 5686 5692 5699 5704 5709 5714 5718 5722 5725 5727 5730 5732 5735 5739 5743 5745 5747 5749 5752 5753 5754 5756 5759 5763 5767 5771 5774 5777 5779 5783 5781 5788 5788 5794 5798 5802 5806 5805 5805 5811 5812 5816 5820 5825 5829 5826 5829
5665 5664 5665 5666 5667 5670 5674 5680 5686 5692 5698 5703 5708 5712 5716 5719 5722 5724 5726 5730 5733 5738 5741 5742 5745 5743 5745 5747 5752 5754 5757 5761 5763 5766 5772 5774 5765 5756 5775 5779 5785 5791 5795 5795 5795 5794 5800 5802 5809 5807 5810 5817 5819 5827
5658 5658 5659 5661 5662 5665 5669 5674 5680 5686 5692 5697 5702 5706 5710 5714 5716 5719 5722 5725 5728 5731 5736 5738 5742 5741 5742 5743 5748 5749 5753 5756 5760 5762 5766 5771 5769 5771 5772 5773 5771 5786 5788 5784 5778 5778 5780 5770 5800 5800 5806 5808 5807 5811
5651 5652 5653 5656 5657 5660 5663 5668 5673 5679 5685 5691 5695 5700 5704 5708 5711 5714 5718 5720 5723 5726 5730 5734 5737 5737 5738 5738 5743 5746 5748 5751 5754 5757 5761 5765 5766 5767 5770 5770 5770 5777 5778 5778 5776 5773 5780 5787 5781 5798 5806 5808 5811 5813
5644 5646 5648 5650 5652 5655 5658 5662 5667 5673 5678 5683 5689 5694 5698 5701 5705 5709 5711 5713 5717 5721 5725 5729 5732 5734 5735 5734 5736 5741 5745 5746 5749 5752 5756 5759 5760 5761 5763 5766 5768 5769 5768 5769 5775 5780 5785 5788 5791 5791 5797 5802 5805 5808
5639 5640 5642 5644 5647 5650 5653 5657 5662 5667 5672 5677 5681 5687 5690 5694 5700 5703 5705 5708 5711 5717 5720 5725 5726 5729 5732 5733 5733 5733 5736 5740 5745 5746 5749 5751 5752 5753 5758 5760 5757 5762 5762 5763 5765 5770 5774 5780 5781 5784 5789 5792 5794 5797
5633 5635 5636 5638 5641 5644 5648 5652 5656 5661 5665 5670 5675 5679 5684 5690 5692 5695 5699 5702 5705 5709 5715 5719 5719 5726 5728 5729 5730 5732 5733 5734 5737 5743 5743 5744 5746 5750 5751 5754 5758 5758 5759 5757 5756 5761 5766 5766 5771 5776 5777 5778 5780 5787
5626 5629 5631 5633 5636 5639 5642 5646 5650 5655 5659 5664 5668 5674 5679 5679 5684 5689 5692 5696 5699 5705 5709 5710 5715 5718 5720 5725 5729 5730 5732 5733 5733 5737 5737 5739 5742 5744 5745 5750 5752 5754 5755 5755 5754 5756 5759 5763 5762 5766 5768 5771 5775 5779
5619 5622 5625 5627 5630 5633 5637 5641 5645 5649 5653 5657 5662 5667 5670 5674 5679 5683 5686 5690 5695 5698 5702 5704 5710 5712 5714 5718 5722 5726 5727 5727 5732 5732 5732 5734 5739 5738 5738 5743 5744 5747 5749 5750 5751 5753 5754 5757 5760 5764 5764 5766 5767 5774
5613 5615 5619 5622 5625 5628 5632 5635 5639 5643 5647 5652 5656 5659 5664 5668 5673 5679 5682 5686 5689 5691 5696 5698 5702 5706 5708 5713 5717 5719 5720 5722 5727 5728 5727 5730 5733 5733 5734 5734 5737 5740 5742 5744 5746 5748 5751 5752 5756 5758 5758 5761 5766 5768
5605 5609 5613 5616 5620 5624 5626 5630 5634 5638 5642 5646 5649 5654 5658 5664 5670 5673 5676 5679 5683 5686 5689 5694 5696 5699 5703 5706 5710 5711 5715 5717 5719 5722 5724 5727 5728 5729 5730 5731 5733 5735 5738 5740 5742 5744 5746 5747 5750 5752 5755 5757 5760 5762
5598 5602 5607 5611 5614 5618 5622 5626 5630 5633 5637 5640 5644 5649 5656 5659 5663 5667 5671 5674 5678 5681 5683 5688 5692 5695 5697 5700 5703 5707 5709 5710 5712 5716 5719 5720 5722 5724 5726 5728 5729 5731 5733 5735 5737 5737 5740 5742 5745 5747 5748 5751 5753 5755
5591 5596 5601 5605 5609 5612 5617 5621 5625 5628 5632 5636 5643 5648 5650 5655 5659 5663 5665 5670 5673 5676 5679 5682 5685 5688 5692 5695 5698 5702 5704 5703 5704 5707 5709 5711 5713 5717 5719 5720 5723 5725 5727 5728 5731 5732 5734 5736 5738 5740 5742 5744 5746 5747
5586 5589 5594 5599 5603 5607 5611 5617 5619 5623 5626 5633 5639 5642 5645 5648 5651 5655 5660 5664 5667 5670 5672 5675 5680 5682 5686 5689 5693 5694 5692 5690 5697 5701 5704 5703 5683 5695 5711 5716 5718 5720 5721 5723 5726 5726 5727 5730 5731 5735 5737 5737 5739 5739
5579 5582 5587 5592 5596 5601 5605 5609 5612 5616 5622 5628 5632 5634 5635 5638 5644 5647 5654 5658 5661 5662 5667 5671 5676 5678 5681 5683 5685 5683 5685 5685 5689 5695 5698 5698 5696 5699 5702 5706 5712 5714 5715 5717 5719 5721 5722 5725 5726 5729 5731 5731 5731 5732
5574 5577 5581 5585 5590 5594 5598 5602 5606 5610 5613 5616 5621 5624 5628 5633 5637 5640 5647 5652 5653 5655 5660 5665 5667 5671 5674 5675 5676 5677 5676 5679 5683 5686 5691 5694 5695 5693 5693 5694 5701 5706 5708 5710 5713 5715 5717 5719 5721 5723 5725 5726 5727 5728
5570 5573 5576 5579 5583 5587 5591 5596 5599 5601 5604 5609 5613 5616 5621 5625 5628 5632 5637 5643 5645 5648 5652 5658 5664 5668 5668 5666 5667 5667 5668 5674 5678 5682 5685 5684 5684 5686 5691 5686 5694 5699 5703 5705 5707 5710 5712 5715 5717 5719 5721 5722 5723 5723
5568 5570 5573 5577 5580 5583 5586 5589 5592 5596 5598 5602 5604 5608 5612 5616 5619 5624 5629 5633 5634 5638 5646 5650 5655 5657 5656 5655 5654 5657 5664 5669 5673 5678 5679 5680 5668 5673 5681 5687 5692 5697 5699 5700 5702 5704 5706 5710 5713 5715 5715 5717 5718 5719
5566 5567 5569 5572 5575 5579 5582 5585 5587 5589 5592 5595 5597 5601 5604 5607 5611 5614 5618 5621 5627 5632 5635 5639 5644 5646 5648 5647 5644 5647 5661 5666 5668 5670 5674 5677 5677 5676 5680 5686 5688 5691 5694 5695 5698 5700 5703 5706 5708 5710 5710 5713 5714 5714
5563 5564 5566 5568 5571 5573 5577 5578 5580 5582 5584 5587 5590 5592 5596 5599 5602 5605 5608 5613 5617 5620 5625 5630 5635 5637 5639 5641 5640 5645 5657 5662 5662 5665 5668 5673 5677 5679 5682 5673 5672 5686 5690 5692 5693 5695 5698 5700 5703 5704 5706 5707 5709 5708
5558 5559 5560 5562 5565 5566 5569 5570 5571 5573 5577 5578 5581 5583 5587 5589 5592 5595 5600 5604 5608 5611 5615 5621 5625 5628 5631 5633 5634 5638 5644 5651 5655 5657 5662 5667 5670 5673 5678 5678 5680 5684 5685 5682 5685 5687 5692 5695 5695 5698 5700 5702 5703 5703
5551 5552 5553 5554 5555 5557 5558 5561 5562 5564 5567 5569 5571 5574 5577 5578 5581 5584 5591 5596 5599 5604 5607 5611 5615 5620 5624 5626 5629 5631 5635 5639 5647 5652 5655 5658 5662 5667 5670 5673 5676 5678 5680 5682 5677 5678 5688 5692 5693 5695 5695 5697 5698 5698
5541 5542 5544 5544 5546 5547 5548 5549 5551 5552 5554 5555 5558 5560 5563 5565 5567 5572 5581 5587 5590 5594 5598 5602 5607 5612 5616 5619 5622 5625 5627 5632 5638 5643 5648 5652 5656 5661 5665 5667 5670 5672 5672 5676 5676 5679 5682 5684 5688 5689 5690 5692 5695 5695
5533 5534 5535 5536 5538 5539 5540 5540 5540 5541 5541 5542 5543 5543 5544 5547 5554 5560 5567 5576 5578 5583 5587 5591 5598 5604 5609 5613 5617 5620 5623 5624 5629 5635 5640 5645 5651 5655 5659 5661 5663 5666 5667 5669 5670 5671 5673 5677 5679 5682 5685 5687 5689 5691
5528 5528 5530 5531 5531 5531 5531 5531 5530 5529 5529 5528 5527 5526 5526 5531 5538 5539 5544 5558 5566 5570 5575 5582 5590 5596 5600 5606 5610 5615 5618 5621 5624 5628 5632 5638 5644 5647 5649 5652 5656 5656 5661 5665 5667 5670 5672 5673 5674 5677 5680 5682 5684 5683
5524 5525 5526 5526 5526 5525 5524 5522 5521 5518 5515 5510 5506 5504 5503 5506 5512 5514 5523 5536 5549 5557 5566 5575 5581 5588 5594 5599 5603 5608 5612 5616 5619 5624 5627 5632 5636 5637 5637 5639 5641 5646 5652 5655 5660 5663 5666 5669 5669 5671 5674 5676 5677 5678
5523 5523 5523 5522 5522 5520 5519 5516 5513 5508 5503 5498 5494 5489 5485 5485 5487 5494 5507 5521 5536 5546 5551 5562 5570 5576 5584 5591 5597 5601 5605 5609 5614 5619 5622 5627 5628 5628 5629 5635 5638 5642 5648 5649 5653 5656 5658 5660 5663 5665 5667 5668 5670 5671
5522 5521 5521 5519 5517 5515 5511 5507 5502 5498 5494 5489 5485 5483 5481 5480 5481 5490 5502 5516 5529 5535 5542 5553 5562 5570 5577 5585 5591 5596 5601 5605 5609 5613 5618 5622 5626 5628 5628 5630 5635 5638 5642 5646 5649 5651 5653 5655 5656 5658 5659 5660 5661 5664
5520 5518 5516 5514 5512 5509 5505 5502 5497 5493 5488 5485 5483 5480 5479 5481 5485 5493 5496 5506 5513 5520 5533 5544 5554 5564 5572 5579 5585 5590 5596 5599 5604 5609 5614 5618 5622 5626 5628 5629 5631 5632 5635 5640 5642 5643 5645 5647 5650 5652 5653 5654 5656 5658
5517 5515 5513 5510 5507 5505 5502 5498 5495 5491 5487 5484 5482 5482 5483 5486 5489 5494 5499 5504 5512 5520 5529 5541 5551 5561 5569 5576 5582 5587 5590 5595 5599 5602 5607 5613 5616 5619 5622 5625 5627 5628 5629 5632 5634 5636 5639 5641 5643 5645 5648 5648 5650 5652